Pocatello, ID

4:46 PM MST on February 27, 2017 (GMT -0700)
Pocatello Regional

Weather History for KPIH - May, 2012

Change the Weather History Date:

Thursday, May 17, 2012

  Actual Average Record
Temperature  
Mean Temperature 61 °F 54 °F  
Max Temperature 75 °F 68 °F 87 °F (1992)
Min Temperature 47 °F 40 °F 30 °F (1955)
Degree Days  
Heating Degree Days 4 11  
Month to date heating degree days 199 225  
Since 1 July heating degree days 6357 6919  
Cooling Degree Days 0 0  
Month to date cooling degree days 1 0  
Year to date cooling degree days 1 0  
Growing Degree Days 12 (Base 50)    
Moisture  
Dew Point 36 °F    
Average Humidity 43    
Maximum Humidity 66    
Minimum Humidity 19    
Precipitation  
Precipitation T in 0.05 in 0.35 in (1944)
Month to date precipitation T 0.80  
Year to date precipitation 4.29 5.17  
Snow  
Snow 0.00 in - - ()
Month to date snowfall 0.0  
Since 1 July snowfall 15.8  
Snow Depth 0.00 in    
Sea Level Pressure  
Sea Level Pressure 29.69 in    
Wind  
Wind Speed 10 mph (WSW)    
Max Wind Speed 26 mph    
Max Gust Speed 36 mph    
Visibility 10 miles    
Events      
T = Trace of Precipitation, MM = Missing Value Source: NWS Daily Summary

Daily Weather History Graph

Daily Weather History Graph

Search for Another Location

Airport or City:

Trip Planner

Search our weather history database for the weather conditions in past years. The results will help you decide how hot, cold, wet, or windy it might be!

Date:

Astronomy

May. 17, 2012 Rise Set
Actual Time 6:04 AM MDT 8:49 PM MDT
Civil Twilight 5:32 AM MDT 9:22 PM MDT
Nautical Twilight 4:50 AM MDT 10:03 PM MDT
Astronomical Twilight 4:03 AM MDT 10:51 PM MDT
Moon 4:09 AM MDT (5/17) 6:02 PM MDT (5/17)
Length of Visible Light 15h 50m
Length of Day
14h 44m
Waning Crescent, 9% of the Moon is Illuminated
May 17
Waning Crescent
May 20
New
May 28
First Quarter
Jun 4
Full
Jun 11
Last Quarter

Hourly Weather History & Observations

Time (MDT) Temp. Dew Point Humidity Pressure Visibility Wind Dir Wind Speed Gust Speed Precip Events Conditions
12:53 AM 66.9 °F 34.0 °F 30% 29.74 in 10.0 mi SSW 11.5 mph - N/A   Clear
1:53 AM 64.9 °F 34.0 °F 32% 29.73 in 10.0 mi SSW 10.4 mph - N/A   Clear
2:53 AM 64.0 °F 34.0 °F 33% 29.71 in 10.0 mi SSW 5.8 mph - N/A   Clear
3:53 AM 59.0 °F 37.0 °F 44% 29.73 in 10.0 mi Calm Calm - N/A   Clear
4:53 AM 52.0 °F 37.0 °F 57% 29.74 in 10.0 mi Calm Calm - N/A   Clear
5:53 AM 48.0 °F 37.9 °F 68% 29.77 in 10.0 mi WNW 5.8 mph - N/A   Clear
6:53 AM 51.1 °F 37.9 °F 61% 29.75 in 10.0 mi North 3.5 mph - N/A   Partly Cloudy
7:53 AM 57.9 °F 37.9 °F 47% 29.74 in 10.0 mi Calm Calm - N/A   Partly Cloudy
8:53 AM 62.1 °F 39.0 °F 43% 29.74 in 10.0 mi SW 6.9 mph - N/A   Partly Cloudy
9:53 AM 62.1 °F 39.9 °F 44% 29.74 in 10.0 mi SW 12.7 mph - N/A   Clear
10:53 AM 64.9 °F 37.9 °F 37% 29.74 in 10.0 mi WSW 10.4 mph - N/A   Clear
11:53 AM 69.1 °F 36.0 °F 30% 29.72 in 10.0 mi West 10.4 mph - N/A   Clear
12:53 PM 71.1 °F 39.0 °F 31% 29.69 in 10.0 mi West 12.7 mph 19.6 mph N/A   Partly Cloudy
1:53 PM 71.1 °F 36.0 °F 28% 29.67 in 10.0 mi West 11.5 mph 18.4 mph N/A   Clear
2:53 PM 70.0 °F 34.0 °F 27% 29.66 in 10.0 mi WSW 17.3 mph - N/A   Scattered Clouds
3:53 PM 75.0 °F 30.0 °F 19% 29.63 in 10.0 mi WSW 16.1 mph 21.9 mph N/A   Partly Cloudy
4:53 PM 75.0 °F 30.9 °F 20% 29.62 in 10.0 mi West 19.6 mph 25.3 mph N/A   Partly Cloudy
5:53 PM 71.1 °F 35.1 °F 27% 29.63 in 10.0 mi WSW 12.7 mph - N/A   Partly Cloudy
6:53 PM 71.1 °F 35.1 °F 27% 29.61 in 10.0 mi WSW 12.7 mph - N/A   Clear
7:53 PM 66.9 °F 36.0 °F 32% 29.60 in 10.0 mi SSW 8.1 mph - N/A   Clear
8:53 PM 64.9 °F 37.9 °F 37% 29.61 in 10.0 mi SW 10.4 mph - N/A   Clear
9:53 PM 61.0 °F 37.0 °F 41% 29.63 in 10.0 mi WSW 13.8 mph - N/A   Partly Cloudy
10:53 PM 59.0 °F 35.1 °F 41% 29.66 in 10.0 mi WSW 19.6 mph 26.5 mph N/A   Overcast
11:53 PM 55.9 °F 34.0 °F 44% 29.69 in 10.0 mi SSW 10.4 mph 21.9 mph 0.00 in   Overcast